Time,TemperatureF,DewpointF,PressureIn,WindDirection,WindDirectionDegrees,WindSpeedMPH,WindSpeedGustMPH,Humidity,HourlyPrecipIn,Conditions,Clouds,dailyrainin,SolarRadiationWatts/m^2,SoftwareType,DateUTC
2013-05-22 00:12:00,50.0,49.0,-100.00,NNE,17,10.0,17.0,98,0.02,,,1.03,0.000000,,2013-05-22 05:12:00,
2013-05-22 00:21:00,50.0,49.0,-100.00,NNE,17,10.0,17.0,98,0.02,,,1.03,0.000000,,2013-05-22 05:21:00,
2013-05-22 00:32:00,50.0,49.0,-100.00,NNE,17,10.0,17.0,98,0.02,,,1.03,0.000000,,2013-05-22 05:32:00,
2013-05-22 00:42:00,50.0,49.0,-100.00,NNE,17,10.0,17.0,98,0.02,,,1.03,0.000000,,2013-05-22 05:42:00,
2013-05-22 00:51:00,50.0,50.0,-100.00,North,7,11.0,16.0,100,0.01,,,1.04,0.000000,,2013-05-22 05:51:00,
2013-05-22 01:12:00,50.0,50.0,-100.00,North,7,11.0,16.0,100,0.01,,,1.04,0.000000,,2013-05-22 06:12:00,
2013-05-22 01:21:00,50.0,50.0,-100.00,North,7,11.0,16.0,100,0.01,,,1.04,0.000000,,2013-05-22 06:21:00,
2013-05-22 01:32:00,50.0,50.0,-100.00,North,7,11.0,16.0,100,0.01,,,1.04,0.000000,,2013-05-22 06:32:00,
2013-05-22 01:42:00,50.0,50.0,-100.00,North,7,11.0,16.0,100,0.01,,,1.04,0.000000,,2013-05-22 06:42:00,
2013-05-22 01:51:00,49.0,49.0,-100.00,NNE,22,13.0,17.0,99,0.01,,,1.05,0.000000,,2013-05-22 06:51:00,
2013-05-22 02:11:00,49.0,49.0,-100.00,NNE,22,13.0,17.0,99,0.01,,,1.05,0.000000,,2013-05-22 07:11:00,
2013-05-22 02:21:00,49.0,49.0,-100.00,NNE,22,13.0,17.0,99,0.01,,,1.05,0.000000,,2013-05-22 07:21:00,
2013-05-22 02:32:00,49.0,49.0,-100.00,NNE,22,13.0,17.0,99,0.01,,,1.05,0.000000,,2013-05-22 07:32:00,
2013-05-22 02:42:00,49.0,49.0,-100.00,NNE,22,13.0,17.0,99,0.01,,,1.05,0.000000,,2013-05-22 07:42:00,
2013-05-22 02:51:00,49.0,48.0,-100.00,NNE,22,13.0,19.0,97,0.00,,,1.05,0.000000,,2013-05-22 07:51:00,
2013-05-22 03:11:00,49.0,48.0,-100.00,NNE,22,13.0,19.0,97,0.00,,,1.05,0.000000,,2013-05-22 08:11:00,
2013-05-22 03:22:00,49.0,48.0,-100.00,NNE,22,13.0,19.0,97,0.00,,,1.05,0.000000,,2013-05-22 08:22:00,
2013-05-22 03:32:00,49.0,48.0,-100.00,NNE,22,13.0,19.0,97,0.00,,,1.05,0.000000,,2013-05-22 08:32:00,
2013-05-22 03:42:00,49.0,48.0,-100.00,NNE,22,13.0,19.0,97,0.00,,,1.05,0.000000,,2013-05-22 08:42:00,
2013-05-22 03:51:00,48.0,47.0,-100.00,NNE,19,12.0,17.0,97,0.01,,,1.06,0.000000,,2013-05-22 08:51:00,
2013-05-22 04:12:00,48.0,47.0,-100.00,NNE,19,12.0,17.0,97,0.01,,,1.06,0.000000,,2013-05-22 09:12:00,
2013-05-22 04:22:00,48.0,47.0,-100.00,NNE,19,12.0,17.0,97,0.01,,,1.06,0.000000,,2013-05-22 09:22:00,
2013-05-22 04:33:00,48.0,47.0,-100.00,NNE,19,12.0,17.0,97,0.01,,,1.06,0.000000,,2013-05-22 09:33:00,
2013-05-22 04:42:00,48.0,47.0,-100.00,NNE,19,12.0,17.0,97,0.01,,,1.06,0.000000,,2013-05-22 09:42:00,
2013-05-22 04:51:00,48.0,47.0,-100.00,NNE,17,10.0,19.0,97,0.02,,,1.08,0.000000,,2013-05-22 09:51:00,
2013-05-22 05:12:00,48.0,47.0,-100.00,NNE,17,10.0,19.0,97,0.02,,,1.08,0.000000,,2013-05-22 10:12:00,
2013-05-22 05:23:00,48.0,47.0,-100.00,NNE,17,10.0,19.0,97,0.02,,,1.08,0.000000,,2013-05-22 10:23:00,
2013-05-22 05:33:00,48.0,47.0,-100.00,NNE,17,10.0,19.0,97,0.02,,,1.08,0.000000,,2013-05-22 10:33:00,
2013-05-22 05:42:00,48.0,47.0,-100.00,NNE,17,10.0,19.0,97,0.02,,,1.08,0.000000,,2013-05-22 10:42:00,
2013-05-22 05:51:00,47.0,46.0,-100.00,North,2,11.0,17.0,98,0.04,,,1.12,0.000000,,2013-05-22 10:51:00,
2013-05-22 06:11:00,47.0,46.0,-100.00,North,2,11.0,17.0,98,0.04,,,1.12,0.000000,,2013-05-22 11:11:00,
2013-05-22 06:22:00,47.0,46.0,-100.00,North,2,11.0,17.0,98,0.04,,,1.12,0.000000,,2013-05-22 11:22:00,
2013-05-22 06:32:00,47.0,46.0,-100.00,North,2,11.0,17.0,98,0.04,,,1.12,0.000000,,2013-05-22 11:32:00,
2013-05-22 06:42:00,47.0,46.0,-100.00,North,2,11.0,17.0,98,0.04,,,1.12,0.000000,,2013-05-22 11:42:00,
2013-05-22 06:51:00,47.0,46.0,-100.00,North,5,13.0,18.0,96,0.05,,,1.10,10.000000,,2013-05-22 11:51:00,
2013-05-22 07:12:00,47.0,46.0,-100.00,North,5,13.0,18.0,96,0.05,,,1.10,10.000000,,2013-05-22 12:12:00,
2013-05-22 07:22:00,47.0,46.0,-100.00,North,5,13.0,18.0,96,0.05,,,1.10,10.000000,,2013-05-22 12:22:00,
2013-05-22 07:32:00,47.0,46.0,-100.00,North,5,13.0,18.0,96,0.05,,,1.10,10.000000,,2013-05-22 12:32:00,
2013-05-22 07:42:00,47.0,46.0,-100.00,North,5,13.0,18.0,96,0.05,,,1.10,10.000000,,2013-05-22 12:42:00,
2013-05-22 07:51:00,48.0,46.0,-100.00,North,5,14.0,20.0,94,0.02,,,1.11,72.000000,,2013-05-22 12:51:00,
2013-05-22 08:12:00,48.0,46.0,-100.00,North,5,14.0,20.0,94,0.02,,,1.11,72.000000,,2013-05-22 13:12:00,
2013-05-22 08:22:00,48.0,46.0,-100.00,North,5,14.0,20.0,94,0.02,,,1.11,72.000000,,2013-05-22 13:22:00,
2013-05-22 08:32:00,48.0,46.0,-100.00,North,5,14.0,20.0,94,0.02,,,1.11,72.000000,,2013-05-22 13:32:00,
2013-05-22 08:42:00,48.0,46.0,-100.00,North,5,14.0,20.0,94,0.02,,,1.11,72.000000,,2013-05-22 13:42:00,
2013-05-22 08:51:00,49.0,47.0,-100.00,North,9,13.0,20.0,94,0.01,,,1.10,109.000000,,2013-05-22 13:51:00,
2013-05-22 09:11:00,49.0,47.0,-100.00,North,9,13.0,20.0,94,0.01,,,1.10,109.000000,,2013-05-22 14:11:00,
2013-05-22 09:21:00,49.0,47.0,-100.00,North,9,13.0,20.0,94,0.01,,,1.10,109.000000,,2013-05-22 14:21:00,
2013-05-22 09:32:00,49.0,47.0,-100.00,North,9,13.0,20.0,94,0.01,,,1.10,109.000000,,2013-05-22 14:32:00,
2013-05-22 09:42:00,49.0,47.0,-100.00,North,9,13.0,20.0,94,0.01,,,1.10,109.000000,,2013-05-22 14:42:00,
2013-05-22 09:51:00,49.0,46.0,-100.00,NNE,16,14.0,19.0,91,0.01,,,1.06,137.000000,,2013-05-22 14:51:00,
2013-05-22 10:11:00,49.0,46.0,-100.00,NNE,16,14.0,19.0,91,0.01,,,1.06,137.000000,,2013-05-22 15:11:00,
2013-05-22 10:22:00,49.0,46.0,-100.00,NNE,16,14.0,19.0,91,0.01,,,1.06,137.000000,,2013-05-22 15:22:00,
2013-05-22 10:32:00,49.0,46.0,-100.00,NNE,16,14.0,19.0,91,0.01,,,1.06,137.000000,,2013-05-22 15:32:00,
2013-05-22 10:42:00,49.0,46.0,-100.00,NNE,16,14.0,19.0,91,0.01,,,1.06,137.000000,,2013-05-22 15:42:00,
2013-05-22 10:51:00,50.0,47.0,-100.00,NNE,26,14.0,21.0,91,0.00,,,1.05,247.000000,,2013-05-22 15:51:00,
2013-05-22 11:12:00,50.0,47.0,-100.00,NNE,26,14.0,21.0,91,0.00,,,1.05,247.000000,,2013-05-22 16:12:00,
2013-05-22 11:23:00,50.0,47.0,-100.00,NNE,26,14.0,21.0,91,0.00,,,1.05,247.000000,,2013-05-22 16:23:00,
2013-05-22 11:32:00,50.0,47.0,-100.00,NNE,26,14.0,21.0,91,0.00,,,1.05,247.000000,,2013-05-22 16:32:00,
2013-05-22 11:42:00,50.0,47.0,-100.00,NNE,26,14.0,21.0,91,0.00,,,1.05,247.000000,,2013-05-22 16:42:00,
2013-05-22 11:51:00,51.0,49.0,-100.00,NNE,15,14.0,20.0,92,0.01,,,1.01,242.000000,,2013-05-22 16:51:00,
2013-05-22 12:11:00,51.0,49.0,-100.00,NNE,15,14.0,20.0,92,0.01,,,1.01,242.000000,,2013-05-22 17:11:00,
2013-05-22 12:23:00,51.0,49.0,-100.00,NNE,15,14.0,20.0,92,0.01,,,1.01,242.000000,,2013-05-22 17:23:00,
2013-05-22 12:33:00,51.0,49.0,-100.00,NNE,15,14.0,20.0,92,0.01,,,1.01,242.000000,,2013-05-22 17:33:00,
2013-05-22 12:42:00,51.0,49.0,-100.00,NNE,15,14.0,20.0,92,0.01,,,1.01,242.000000,,2013-05-22 17:42:00,
2013-05-22 12:51:00,51.0,49.0,-100.00,NNE,19,15.0,20.0,94,0.02,,,0.97,232.000000,,2013-05-22 17:51:00,
2013-05-22 13:14:00,51.0,49.0,-100.00,NNE,19,15.0,20.0,94,0.02,,,0.97,232.000000,,2013-05-22 18:14:00,
2013-05-22 13:22:00,51.0,49.0,-100.00,NNE,19,15.0,20.0,94,0.02,,,0.97,232.000000,,2013-05-22 18:22:00,
2013-05-22 13:33:00,51.0,49.0,-100.00,NNE,19,15.0,20.0,94,0.02,,,0.97,232.000000,,2013-05-22 18:33:00,
2013-05-22 13:42:00,51.0,49.0,-100.00,NNE,19,15.0,20.0,94,0.02,,,0.97,232.000000,,2013-05-22 18:42:00,
2013-05-22 13:51:00,52.0,49.0,-100.00,NNE,17,15.0,24.0,91,0.01,,,0.81,217.000000,,2013-05-22 18:51:00,
2013-05-22 14:11:00,52.0,49.0,-100.00,NNE,17,15.0,24.0,91,0.01,,,0.81,217.000000,,2013-05-22 19:11:00,
2013-05-22 14:21:00,52.0,49.0,-100.00,NNE,17,15.0,24.0,91,0.01,,,0.81,217.000000,,2013-05-22 19:21:00,
2013-05-22 14:32:00,52.0,49.0,-100.00,NNE,17,15.0,24.0,91,0.01,,,0.81,217.000000,,2013-05-22 19:32:00,
2013-05-22 14:42:00,52.0,49.0,-100.00,NNE,17,15.0,24.0,91,0.01,,,0.81,217.000000,,2013-05-22 19:42:00,
2013-05-22 14:51:00,53.0,50.0,-100.00,NNE,30,14.0,20.0,90,0.01,,,0.68,237.000000,,2013-05-22 19:51:00,
2013-05-22 15:11:00,53.0,50.0,-100.00,NNE,30,14.0,20.0,90,0.01,,,0.68,237.000000,,2013-05-22 20:11:00,
2013-05-22 15:22:00,53.0,50.0,-100.00,NNE,30,14.0,20.0,90,0.01,,,0.68,237.000000,,2013-05-22 20:22:00,
2013-05-22 15:32:00,53.0,50.0,-100.00,NNE,30,14.0,20.0,90,0.01,,,0.68,237.000000,,2013-05-22 20:32:00,
2013-05-22 15:42:00,53.0,50.0,-100.00,NNE,30,14.0,20.0,90,0.01,,,0.68,237.000000,,2013-05-22 20:42:00,
2013-05-22 15:51:00,54.0,51.0,-100.00,NE,38,15.0,25.0,88,0.00,,,0.64,283.000000,,2013-05-22 20:51:00,
2013-05-22 16:11:00,54.0,51.0,-100.00,NE,38,15.0,25.0,88,0.00,,,0.64,283.000000,,2013-05-22 21:11:00,
2013-05-22 16:21:00,54.0,51.0,-100.00,NE,38,15.0,25.0,88,0.00,,,0.64,283.000000,,2013-05-22 21:21:00,
2013-05-22 16:32:00,54.0,51.0,-100.00,NE,38,15.0,25.0,88,0.00,,,0.64,283.000000,,2013-05-22 21:32:00,
2013-05-22 16:42:00,54.0,51.0,-100.00,NE,38,15.0,25.0,88,0.00,,,0.64,283.000000,,2013-05-22 21:42:00,
2013-05-22 17:51:00,55.0,49.0,-100.00,NE,44,15.0,24.0,81,-99.99,,,0.41,115.000000,,2013-05-22 22:51:00,
2013-05-22 18:12:00,55.0,49.0,-100.00,NE,44,15.0,24.0,81,-99.99,,,0.41,115.000000,,2013-05-22 23:12:00,
2013-05-22 18:21:00,55.0,49.0,-100.00,NE,44,15.0,24.0,81,-99.99,,,0.41,115.000000,,2013-05-22 23:21:00,
2013-05-22 18:32:00,55.0,49.0,-100.00,NE,44,15.0,24.0,81,-99.99,,,0.41,115.000000,,2013-05-22 23:32:00,
2013-05-22 18:42:00,55.0,49.0,-100.00,NE,44,15.0,24.0,81,-99.99,,,0.41,115.000000,,2013-05-22 23:42:00,
2013-05-22 18:51:00,56.0,49.0,-100.00,NE,51,9.0,20.0,77,0.00,,,0.34,115.000000,,2013-05-22 23:51:00,
2013-05-22 19:11:00,56.0,49.0,-100.00,NE,51,9.0,20.0,77,0.00,,,0.34,115.000000,,2013-05-23 00:11:00,
2013-05-22 19:22:00,56.0,49.0,-100.00,NE,51,9.0,20.0,77,0.00,,,0.34,115.000000,,2013-05-23 00:22:00,
2013-05-22 19:32:00,56.0,49.0,-100.00,NE,51,9.0,20.0,77,0.00,,,0.34,115.000000,,2013-05-23 00:32:00,
2013-05-22 19:42:00,56.0,49.0,-100.00,NE,51,9.0,20.0,77,0.00,,,0.34,115.000000,,2013-05-23 00:42:00,
2013-05-22 19:51:00,57.0,48.0,-100.00,ENE,65,9.0,16.0,71,0.00,,,0.33,110.000000,,2013-05-23 00:51:00,
2013-05-22 20:11:00,57.0,48.0,-100.00,ENE,65,9.0,16.0,71,0.00,,,0.33,110.000000,,2013-05-23 01:11:00,
2013-05-22 20:22:00,57.0,48.0,-100.00,ENE,65,9.0,16.0,71,0.00,,,0.33,110.000000,,2013-05-23 01:22:00,
2013-05-22 20:32:00,57.0,48.0,-100.00,ENE,65,9.0,16.0,71,0.00,,,0.33,110.000000,,2013-05-23 01:32:00,
2013-05-22 20:42:00,57.0,48.0,-100.00,ENE,65,9.0,16.0,71,0.00,,,0.33,110.000000,,2013-05-23 01:42:00,
2013-05-22 20:51:00,55.0,47.0,-100.00,ENE,65,6.0,14.0,75,0.00,,,0.32,56.000000,,2013-05-23 01:51:00,
2013-05-22 21:11:00,55.0,47.0,-100.00,ENE,65,6.0,14.0,75,0.00,,,0.32,56.000000,,2013-05-23 02:11:00,
2013-05-22 21:21:00,55.0,47.0,-100.00,ENE,65,6.0,14.0,75,0.00,,,0.32,56.000000,,2013-05-23 02:21:00,
2013-05-22 21:32:00,55.0,47.0,-100.00,ENE,65,6.0,14.0,75,0.00,,,0.32,56.000000,,2013-05-23 02:32:00,
2013-05-22 21:42:00,55.0,47.0,-100.00,ENE,65,6.0,14.0,75,0.00,,,0.32,56.000000,,2013-05-23 02:42:00,
2013-05-22 21:51:00,52.0,47.0,-100.00,ENE,72,3.0,9.0,84,0.00,,,0.28,2.000000,,2013-05-23 02:51:00,
2013-05-22 22:11:00,52.0,47.0,-100.00,ENE,72,3.0,9.0,84,0.00,,,0.28,2.000000,,2013-05-23 03:11:00,
2013-05-22 22:21:00,52.0,47.0,-100.00,ENE,72,3.0,9.0,84,0.00,,,0.28,2.000000,,2013-05-23 03:21:00,
2013-05-22 22:33:00,52.0,47.0,-100.00,ENE,72,3.0,9.0,84,0.00,,,0.28,2.000000,,2013-05-23 03:33:00,
2013-05-22 22:43:00,52.0,47.0,-100.00,ENE,72,3.0,9.0,84,0.00,,,0.28,2.000000,,2013-05-23 03:43:00,
2013-05-22 22:51:00,47.0,45.0,-100.00,North,352,2.0,4.0,94,0.00,,,0.25,0.000000,,2013-05-23 03:51:00,
2013-05-22 23:12:00,47.0,45.0,-100.00,North,352,2.0,4.0,94,0.00,,,0.25,0.000000,,2013-05-23 04:12:00,
2013-05-22 23:22:00,47.0,45.0,-100.00,North,352,2.0,4.0,94,0.00,,,0.25,0.000000,,2013-05-23 04:22:00,
2013-05-22 23:33:00,47.0,45.0,-100.00,North,352,2.0,4.0,94,0.00,,,0.25,0.000000,,2013-05-23 04:33:00,
2013-05-22 23:42:00,47.0,45.0,-100.00,North,352,2.0,4.0,94,0.00,,,0.25,0.000000,,2013-05-23 04:42:00,
2013-05-22 23:51:00,46.0,45.0,-100.00,North,354,2.0,4.0,96,0.00,,,0.23,0.000000,,2013-05-23 04:51:00,